Oak Ridge, TN

11:58 AM EDT on August 19, 2017 (GMT -0400)
Oak Ridge

Weather History for KOQT - October, 2012

Change the Weather History Date:

Friday, October 19, 2012

  Actual Average (KTYS) Record (KTYS)
Temperature  
Mean Temperature 54 °F -  
Max Temperature 68 °F 67 °F 88 °F (2016)
Min Temperature 39 °F 45 °F 29 °F (1948)
Degree Days  
Heating Degree Days 12    
Growing Degree Days 4 (Base 50)    
Moisture  
Dew Point 38 °F    
Average Humidity 62    
Maximum Humidity 93    
Minimum Humidity 26    
Precipitation  
Precipitation 0.00 in - - ()
Sea Level Pressure  
Sea Level Pressure 29.78 in    
Wind  
Wind Speed 2 mph (SSW)    
Max Wind Speed 13 mph    
Max Gust Speed 23 mph    
Visibility 10 miles    
Events      
Averages and records for this station are not official NWS values.
T = Trace of Precipitation, MM = Missing Value Source: NWS Daily Summary

Daily Weather History Graph

Daily Weather History Graph

Search for Another Location

Airport or City:

Trip Planner

Search our weather history database for the weather conditions in past years. The results will help you decide how hot, cold, wet, or windy it might be!

Date:

Astronomy

Oct. 19, 2012 Rise Set
Actual Time 7:47 AM EDT 6:55 PM EDT
Civil Twilight 7:21 AM EDT 7:21 PM EDT
Nautical Twilight 6:51 AM EDT 7:51 PM EDT
Astronomical Twilight 6:22 AM EDT 8:20 PM EDT
Moon 12:23 PM EDT 10:38 PM EDT
Length of Visible Light 11h 59m
Length of Day
11h 07m
Waxing Crescent, 23% of the Moon is Illuminated
Oct 19
Waxing Crescent
Oct 21
First Quarter
Oct 29
Full
Nov 6
Last Quarter
Nov 13
New

Hourly Weather History & Observations

Time (EDT) Temp. Dew Point Humidity Pressure Visibility Wind Dir Wind Speed Gust Speed Precip Events Conditions
12:53 AM 46.0 °F 43.0 °F 89% 29.83 in 10.0 mi Calm Calm - N/A   Overcast
1:53 AM 45.0 °F 43.0 °F 93% 29.82 in 10.0 mi Calm Calm - 0.00 in   Clear
2:53 AM 44.1 °F 41.0 °F 89% 29.81 in 10.0 mi Calm Calm - N/A   Clear
3:53 AM 43.0 °F 39.9 °F 89% 29.79 in 10.0 mi Calm Calm - N/A   Clear
4:53 AM 41.0 °F 39.0 °F 93% 29.79 in 10.0 mi Calm Calm - N/A   Clear
5:07 AM 41.0 °F 37.4 °F 87% 29.79 in 10.0 mi Calm Calm - N/A   Scattered Clouds
5:53 AM 39.9 °F 37.9 °F 93% 29.80 in 10.0 mi Calm Calm - N/A   Clear
6:53 AM 39.0 °F 37.0 °F 93% 29.81 in 10.0 mi Calm Calm - N/A   Clear
7:53 AM 39.0 °F 37.0 °F 93% 29.80 in 10.0 mi Calm Calm - N/A   Clear
8:53 AM 43.0 °F 39.9 °F 89% 29.80 in 10.0 mi Calm Calm - N/A   Clear
9:53 AM 50.0 °F 43.0 °F 77% 29.79 in 10.0 mi Calm Calm - N/A   Partly Cloudy
10:53 AM - - N/A% 29.78 in - North - - N/A   Unknown
11:53 AM 59.0 °F 41.0 °F 51% 29.78 in 10.0 mi SW 5.8 mph - N/A   Scattered Clouds
12:53 PM 64.0 °F 37.9 °F 38% 29.76 in 10.0 mi Variable 6.9 mph - N/A   Partly Cloudy
1:53 PM 64.9 °F 35.1 °F 33% 29.73 in 10.0 mi SSW 10.4 mph 16.1 mph N/A   Partly Cloudy
2:53 PM 68.0 °F 36.0 °F 31% 29.70 in 10.0 mi SSW 8.1 mph 18.4 mph N/A   Partly Cloudy
3:53 PM 66.9 °F 34.0 °F 30% 29.70 in 10.0 mi Variable 6.9 mph 21.9 mph N/A   Overcast
4:53 PM 68.0 °F 32.0 °F 26% 29.70 in 10.0 mi SSW 12.7 mph 23.0 mph N/A   Overcast
5:53 PM 66.0 °F 33.1 °F 29% 29.73 in 10.0 mi Variable 6.9 mph - N/A   Overcast
6:53 PM 64.0 °F 34.0 °F 33% 29.75 in 10.0 mi Variable 3.5 mph - N/A   Overcast
7:53 PM 63.0 °F 36.0 °F 37% 29.77 in 10.0 mi Calm Calm - N/A   Overcast
8:53 PM 62.1 °F 37.0 °F 39% 29.79 in 10.0 mi Calm Calm - N/A   Overcast
9:53 PM 59.0 °F 37.9 °F 46% 29.81 in 10.0 mi Variable 3.5 mph - N/A   Overcast
10:53 PM 57.9 °F 39.9 °F 51% 29.81 in 10.0 mi Calm Calm - N/A   Overcast
11:53 PM 55.9 °F 39.9 °F 55% 29.81 in 10.0 mi Calm Calm - N/A   Overcast